sat.trackr.live / text

‹ back to catalog

EZIE-C

NORAD 63249 · 2025-052AR

PAYLOAD ACTIVE UNKNOWN

§ Identity

Operator
Country
US
Launch date
2025-03-15
Launch site
AFWTR
Launch vehicle
Mass (kg)
RCS (m²)

External: N2YO · Heavens-Above · Gunter

§ Orbital elements

Epoch: 2026-09-22T22:11:01.846752Z

Period
96.13 min
Inclination
97.6743°
Eccentricity
0.0000989
Mean motion
14.97902478 rev/d
Perigee alt
572.7 km
Apogee alt
574.1 km
Semi-major
6,951.5 km
B*
2.7346e-4
RAAN
156.3544°
Arg perigee
217.6766°
Mean anomaly
142.4387°
Rev number
8,329

§ Raw data

EZIE-C1 63249U 25052AR  26265.92432693  .00003163  00000+0  27346-3 0  99942 63249  97.6743 156.3544 0000989 217.6766 142.4387 14.97902478 83293

JSON: /api/v1/satellites/63249 · /tle

For live sub-satellite position, see the globe view (requires WebGL).

§ Visibility from observer

Set your observer location to see the next 7 days of passes ≥ 10°. The values pass through the URL so the page stays shareable.

No JS? Fill the form by hand. The geolocation button needs JavaScript.

§ Radio — SatNOGS DB

ModeDescriptionDownlinkUplink
FM Mode S - Transmitter 1 2.211 GHz
FM Mode S - Transmitter 2 2.218 GHz
FM Mode S - Transmitter 3 2.268 GHz

3 transmitters · refreshed weekly from db.satnogs.org